GFSGBSN_850_thetae_111.txt.gz
Theta_e
323 324 324 324 324 324 325 325 325 325 324 322 322 320 317 315 315 316 317 318 318 318 317 316 316 315 315 315 317 322 323 322 321 319 323 323 324 329 336 334 331 330 329 325 325 324 323
323 324 324 324 324 324 324 324 325 325 325 324 323 322 320 316 316 319 319 319 318 318 317 316 315 315 315 318 321 323 325 325 322 321 321 322 327 334 333 330 325 325 324 324 323 324 323
324 324 324 324 323 323 324 324 324 325 326 325 324 324 323 319 318 321 321 318 318 319 317 316 316 315 316 318 324 324 324 325 327 327 323 326 337 333 327 328 321 322 324 325 324 324 325
323 323 323 323 323 323 323 324 324 324 325 326 325 325 324 322 319 322 321 319 317 320 317 321 324 320 319 323 324 326 324 325 327 328 324 324 325 327 326 321 323 324 323 326 326 324 324
323 323 323 323 323 323 323 324 324 325 325 326 326 326 324 324 319 321 322 319 319 321 321 321 323 324 325 324 323 322 325 324 323 326 327 327 328 325 324 325 324 325 325 325 325 324 325
323 323 323 324 324 324 324 324 325 325 325 325 326 326 324 324 319 321 320 319 319 319 322 319 321 324 324 324 323 322 322 324 322 319 323 325 324 327 324 325 325 324 324 324 325 325 325
322 322 322 322 324 326 326 326 325 325 325 325 325 326 326 323 318 318 319 318 318 319 317 318 321 323 324 323 322 322 321 321 321 320 323 320 323 324 324 323 322 322 323 324 325 324 324
324 324 324 323 323 326 327 328 327 326 326 325 325 325 325 322 321 317 318 317 317 317 318 319 319 319 320 320 321 321 321 321 321 322 320 322 324 323 320 320 321 322 324 326 325 323 325
321 323 324 325 326 326 327 327 327 326 326 325 325 325 324 322 323 319 319 318 318 319 318 320 321 320 321 321 321 321 321 321 322 322 322 323 323 322 323 323 324 324 326 326 325 324 323
308 309 310 313 315 316 318 320 321 322 323 324 324 324 323 322 323 317 319 316 319 319 324 324 323 322 321 321 322 322 322 322 322 323 321 323 321 324 325 325 324 327 324 324 324 326 328
304 304 305 306 307 309 310 312 314 316 318 321 322 322 322 322 319 316 317 320 321 319 329 324 322 321 320 321 321 321 321 322 323 322 323 323 324 324 325 325 324 325 323 325 325 326 325
306 305 305 304 304 305 306 307 309 311 314 317 319 320 321 322 318 319 319 320 320 326 327 323 321 321 321 320 321 320 322 321 321 322 322 322 322 324 324 323 323 323 325 324 323 325 327
306 306 306 306 306 306 306 306 306 307 308 311 315 318 319 321 320 319 319 321 326 329 324 324 323 321 321 323 323 321 323 324 324 324 326 325 324 323 323 325 323 325 325 325 326 327 326
302 302 303 304 306 306 307 307 307 307 307 308 310 316 320 320 320 320 319 324 328 325 323 321 321 322 324 323 323 322 322 325 323 323 325 326 327 325 324 324 324 324 324 325 325 325 325
301 301 302 302 302 303 305 306 307 308 307 308 309 313 322 321 320 320 319 323 326 323 322 323 321 324 325 323 323 324 324 325 324 323 326 326 325 323 323 323 323 325 328 322 327 325 328
300 300 301 301 301 302 303 304 306 307 307 307 308 313 321 321 320 320 320 319 323 320 321 321 324 323 325 325 326 326 325 323 324 322 321 324 328 323 323 322 324 326 324 327 327 330 329
301 301 300 300 301 301 302 302 303 305 307 307 310 316 321 321 321 319 322 321 320 320 320 322 322 323 324 325 325 325 325 324 324 323 323 324 326 326 324 326 326 325 325 325 325 328 327
302 301 301 301 300 301 301 302 303 304 306 308 315 318 320 322 322 313 322 319 318 321 320 320 321 323 323 323 325 325 326 325 323 323 325 321 325 327 326 322 321 323 326 325 325 327 328
302 302 302 302 301 300 300 301 302 303 304 309 320 318 321 321 323 323 320 320 320 322 322 322 321 321 320 323 325 324 324 322 323 324 325 324 325 327 327 325 323 325 325 324 324 324 326
302 302 302 302 302 301 300 300 301 303 303 309 318 321 322 320 317 320 322 321 322 320 320 320 320 319 322 323 322 324 323 321 320 323 320 321 324 327 327 326 325 326 324 323 322 323 323
302 302 302 302 301 301 300 300 301 302 303 309 318 318 317 325 322 320 319 320 322 323 321 318 321 319 321 323 322 322 320 320 319 320 320 323 325 325 323 323 323 323 323 322 322 322 325
303 302 302 302 302 301 301 300 300 301 302 310 317 319 318 320 318 319 317 321 321 321 321 321 320 320 319 322 322 322 320 320 322 320 321 319 322 322 322 321 321 321 322 321 321 322 324
303 303 303 303 302 301 301 300 299 301 302 315 315 316 316 319 320 320 321 321 320 320 320 319 319 319 320 319 318 317 318 317 319 320 320 320 321 321 321 320 320 321 322 321 323 329 331
302 302 302 302 302 302 301 301 299 302 304 306 313 315 314 319 319 321 319 320 321 321 321 319 319 319 318 318 316 316 316 317 317 318 315 320 320 320 322 322 323 322 330 331 332 332 333
302 302 302 302 302 302 302 301 300 302 305 309 310 313 314 317 317 319 320 320 320 319 319 319 319 319 319 316 320 322 321 321 318 321 322 316 320 323 324 323 323 324 332 332 331 330 331
301 302 302 301 301 302 302 302 301 300 304 305 309 311 314 314 315 316 319 320 321 321 321 319 318 318 318 317 320 323 323 321 321 321 321 316 317 321 328 327 326 331 331 331 331 334 330
301 301 301 301 301 301 302 301 302 300 304 305 307 310 312 312 313 314 317 319 317 317 319 317 318 319 317 320 321 322 322 319 321 321 322 330 331 329 329 331 332 329 330 331 332 331 328
301 301 301 300 301 301 301 301 301 302 302 305 306 308 310 310 311 312 314 317 317 316 320 318 319 316 319 322 321 321 321 321 321 322 328 328 330 333 332 334 330 328 332 332 331 331 329
302 301 301 300 301 301 301 301 300 301 301 304 306 306 308 310 310 311 311 313 314 315 316 317 317 317 318 320 321 321 323 322 325 325 326 329 327 326 331 328 327 327 327 328 328 329 331

GFSGBSN_850_thetae_114.txt.gz
Theta_e
323 323 323 323 323 323 324 324 325 325 326 325 324 324 324 321 318 320 320 319 318 318 317 317 316 315 315 320 322 322 323 322 319 323 325 325 327 329 332 333 333 333 331 329 328 328 328
323 323 323 323 323 323 323 324 324 324 325 326 325 325 324 324 319 321 321 318 318 318 317 316 316 315 317 322 321 324 323 321 321 324 324 324 326 331 334 332 330 328 328 327 327 327 327
323 323 323 323 323 323 324 324 324 325 325 325 326 326 324 324 320 321 322 318 319 319 316 316 315 316 321 322 324 323 324 325 325 325 324 326 333 336 331 330 327 327 328 328 328 328 329
323 323 323 324 324 324 324 324 325 325 325 325 325 326 325 324 320 320 320 319 318 320 319 323 321 317 322 323 325 324 324 327 327 327 327 331 333 331 328 327 328 328 329 330 329 328 327
323 322 322 323 324 325 326 326 326 326 325 325 325 325 325 323 320 319 319 319 318 320 322 321 325 326 325 323 325 326 324 326 328 328 327 327 329 329 328 330 329 329 329 328 328 328 328
323 322 322 322 322 324 326 327 327 327 326 325 325 325 325 322 323 319 318 319 319 319 320 320 322 328 325 326 324 323 325 325 323 325 327 328 328 330 328 329 330 329 328 328 328 328 328
325 325 325 325 326 326 326 326 326 326 326 325 325 325 324 322 323 320 319 319 323 324 321 322 325 326 326 323 322 323 323 325 323 323 326 325 327 328 328 328 328 328 329 329 329 328 329
313 314 316 317 319 319 320 320 321 321 322 323 324 324 324 322 323 319 320 321 319 318 324 321 320 320 322 322 323 322 324 324 324 326 325 326 328 328 326 327 327 328 329 330 329 328 329
307 307 308 309 310 311 312 314 315 316 317 319 321 323 323 321 323 318 320 316 319 319 325 324 322 322 322 322 324 324 323 324 326 326 326 328 328 327 328 328 329 329 330 330 329 329 329
304 304 305 305 305 306 307 309 310 312 315 316 318 320 321 320 325 317 320 319 320 320 330 326 325 323 322 323 325 323 323 325 326 326 325 327 326 327 328 328 328 331 327 327 328 329 330
306 307 307 307 306 306 306 306 307 307 309 310 313 317 319 320 319 320 318 319 321 319 333 326 325 322 322 324 324 323 322 324 326 326 326 328 327 327 328 327 327 328 327 328 328 329 330
304 304 305 306 307 307 307 308 308 308 308 308 309 312 316 320 319 319 320 320 320 330 331 325 324 325 325 324 324 323 324 323 324 326 326 326 325 327 327 326 327 327 328 329 329 329 330
302 302 302 303 303 304 305 306 307 308 308 309 309 310 315 321 323 320 320 322 330 331 327 326 326 326 326 326 326 325 326 326 327 328 328 328 327 327 326 328 328 328 329 330 331 331 330
301 301 301 302 302 303 303 304 305 306 308 309 309 310 317 321 320 321 321 327 330 329 328 325 326 327 327 327 327 325 326 327 327 326 328 329 330 328 327 328 328 328 328 330 329 329 329
301 301 301 301 301 302 302 303 304 305 306 308 309 310 320 321 321 321 323 327 329 328 326 326 326 327 328 327 327 327 327 327 327 328 329 329 329 326 326 327 328 329 331 328 330 331 331
302 302 301 301 301 301 302 302 303 304 305 307 309 311 322 321 321 321 325 323 327 325 325 325 328 327 329 328 328 328 328 327 327 327 327 330 330 328 327 326 327 329 328 331 330 332 331
303 302 302 302 302 301 301 302 302 304 305 306 311 318 321 322 321 323 324 325 325 324 324 326 327 327 328 328 328 329 329 328 327 328 328 329 330 330 328 330 329 329 330 330 328 330 331
303 303 303 303 302 302 302 302 302 303 304 306 317 319 319 320 323 323 324 325 321 325 324 324 325 326 328 327 329 329 329 329 326 327 329 329 329 331 330 328 326 327 329 329 330 330 330
302 303 303 303 303 302 302 301 301 302 303 306 317 318 320 322 322 323 325 325 324 326 325 325 325 325 325 327 328 328 328 326 326 327 328 328 329 330 330 329 328 327 328 328 328 328 329
302 302 302 303 303 303 302 302 301 301 303 306 319 321 324 323 323 325 325 325 325 324 324 324 325 324 325 326 327 328 328 325 325 326 322 323 327 329 328 329 329 328 327 327 328 328 327
303 303 303 303 303 303 302 302 301 301 302 306 319 321 323 327 326 326 325 325 324 325 324 323 325 324 325 327 326 326 326 325 323 322 324 326 327 327 327 325 324 325 325 325 325 326 326
303 303 303 303 303 303 302 302 301 301 302 314 318 321 321 322 325 326 320 326 324 325 325 325 326 324 324 326 326 326 325 325 325 325 325 325 325 325 325 323 323 323 323 323 323 324 324
303 303 302 302 303 303 302 301 301 300 301 314 315 316 318 318 320 322 323 325 324 324 324 323 324 325 324 324 323 323 322 323 324 325 325 325 323 324 324 323 322 323 323 323 323 324 327
301 303 303 303 302 303 303 302 301 300 300 305 312 315 316 316 319 319 322 322 323 324 325 323 323 324 323 321 321 321 321 322 323 323 322 324 326 325 324 325 325 327 328 330 329 330 332
301 301 302 302 302 302 302 302 301 300 301 305 310 313 314 315 316 318 319 320 322 323 323 323 323 322 321 321 324 325 325 325 324 323 324 323 327 325 327 325 325 324 328 330 332 331 332
302 301 301 302 302 302 301 301 302 301 301 305 308 310 312 314 314 315 318 318 320 321 322 321 321 321 321 323 324 325 325 324 324 323 323 324 327 327 326 327 326 332 333 331 331 333 331
303 302 301 302 301 301 301 301 301 301 301 302 307 309 311 312 312 314 317 320 319 318 320 320 321 321 320 323 323 323 323 323 324 323 327 325 327 327 325 326 325 331 332 331 333 334 330
302 302 301 301 301 301 301 301 301 301 301 302 306 309 309 311 311 312 315 316 318 319 322 321 321 321 321 322 322 323 323 323 323 323 323 324 327 328 328 329 329 331 331 333 332 330 330
302 303 302 301 301 301 301 302 301 300 301 302 305 308 309 308 310 311 311 312 314 316 318 319 320 322 321 322 322 322 323 323 324 323 325 326 326 326 327 329 330 327 327 326 327 329 331

GFSGBSN_850_thetae_117.txt.gz
Theta_e
323 323 323 323 323 323 324 324 325 325 325 326 326 326 324 324 320 321 322 319 318 318 317 317 317 316 315 327 326 323 323 322 318 329 327 327 328 329 332 333 334 334 333 330 329 329 329
323 323 323 323 323 324 324 325 325 325 325 325 325 325 325 323 320 321 321 318 320 318 317 316 316 316 319 327 327 325 322 322 327 326 327 326 327 328 332 334 333 331 329 329 329 329 329
323 323 323 324 324 325 325 326 326 326 325 325 325 325 325 323 322 320 319 319 318 318 317 316 316 316 327 325 329 328 329 330 328 326 327 326 328 332 334 333 331 329 330 331 330 330 331
323 322 322 322 322 324 326 327 327 327 326 325 325 325 324 324 323 319 318 319 319 320 321 323 316 323 326 324 328 326 327 327 327 327 328 328 334 334 332 330 330 331 331 332 331 330 329
323 324 324 325 324 324 325 326 327 326 326 325 325 325 324 323 323 321 319 319 319 320 322 322 323 331 326 325 327 326 326 328 328 328 328 328 329 330 330 331 332 331 333 332 331 330 330
322 323 323 323 324 324 323 323 324 324 323 323 324 324 324 323 323 321 319 320 320 321 320 321 326 331 327 327 325 327 327 328 329 329 328 329 329 331 331 332 333 333 332 331 331 331 330
312 313 313 314 315 316 316 317 318 320 320 320 322 323 323 323 323 320 322 326 327 328 324 327 329 330 327 326 324 325 327 327 325 327 330 329 330 332 332 331 330 330 330 331 331 330 330
307 307 308 308 309 310 311 312 314 315 317 318 319 321 322 322 323 320 323 324 322 323 328 325 325 326 326 325 325 325 325 327 327 329 328 328 330 331 329 329 329 330 331 332 332 331 330
306 306 306 306 306 306 307 307 308 309 310 312 314 319 321 320 323 323 323 321 322 323 328 326 325 326 325 324 327 325 326 327 328 329 329 331 331 329 329 330 330 332 332 332 332 332 331
306 307 307 307 307 308 308 308 308 308 308 309 309 311 316 320 326 323 325 322 323 323 332 328 326 326 324 325 327 326 326 327 328 330 329 330 329 329 330 330 330 333 331 330 330 331 332
303 303 304 304 305 306 306 307 308 308 309 309 309 310 311 317 321 326 322 323 323 323 337 329 327 325 325 327 327 326 325 326 329 329 328 331 329 329 329 331 329 331 330 330 330 331 332
302 302 302 303 303 304 304 305 306 307 308 309 309 310 311 323 324 324 324 324 324 331 334 329 327 327 327 326 327 326 325 326 327 328 328 329 328 329 330 329 329 329 330 332 332 333 333
301 301 302 302 302 303 304 304 305 306 307 308 309 310 311 318 327 324 324 326 333 332 332 329 328 328 328 328 328 328 328 328 329 329 330 330 329 329 328 329 330 331 332 333 334 334 335
302 302 302 302 302 302 303 303 304 305 306 308 309 310 311 319 322 324 325 329 332 333 332 329 329 329 329 330 329 329 329 329 330 330 330 331 332 330 329 330 331 331 331 332 335 332 332
303 303 303 303 303 303 303 303 304 305 305 307 309 317 320 324 323 323 325 330 331 332 330 329 329 329 329 330 329 330 329 330 331 330 331 333 332 330 329 329 330 332 333 331 330 330 332
303 303 303 303 303 303 303 303 304 305 305 306 309 318 319 324 323 324 326 327 329 329 328 328 329 330 331 331 330 330 331 330 330 329 329 331 333 331 329 329 329 331 331 330 333 334 334
303 303 304 304 304 304 304 304 304 305 305 306 313 319 325 322 322 323 326 327 327 327 326 328 329 330 330 331 331 331 332 331 329 330 329 331 333 333 331 331 331 332 332 332 332 331 333
302 303 303 303 304 304 304 304 303 304 305 306 320 322 323 320 324 325 326 326 325 326 326 327 328 329 330 330 331 330 331 331 329 329 331 331 332 333 333 332 331 330 330 330 332 332 333
302 302 302 303 303 304 303 303 303 302 303 305 320 319 319 319 323 325 325 326 324 326 327 327 327 327 328 329 330 330 330 329 328 328 331 331 331 331 332 332 331 331 331 330 331 331 332
303 303 303 303 303 303 303 303 303 302 302 305 320 323 324 322 321 327 327 327 326 325 326 326 327 327 328 328 329 331 329 329 327 327 322 325 328 330 331 332 330 332 331 330 329 331 331
303 303 303 303 303 303 303 303 303 303 302 309 321 324 324 329 326 326 325 326 326 327 325 326 327 327 327 328 329 329 329 329 326 324 324 327 329 330 329 328 327 327 326 326 326 328 329
303 302 304 303 303 303 303 303 303 303 302 317 318 323 324 320 324 328 322 325 326 325 327 327 326 328 327 328 329 329 328 328 328 328 327 328 330 328 327 326 326 325 325 325 325 326 325
303 302 303 303 303 303 304 304 303 302 303 315 317 316 316 318 322 323 324 326 326 325 326 325 327 328 327 327 326 327 326 327 328 328 329 329 329 329 326 325 325 326 325 325 325 325 325
303 302 301 303 302 303 302 303 303 302 301 310 314 315 317 319 319 321 322 323 325 325 326 325 324 326 326 325 325 324 324 325 325 326 326 327 328 328 327 325 326 327 328 327 327 327 329
302 301 301 302 303 303 302 302 303 302 301 308 310 314 317 319 317 319 320 322 322 323 324 324 325 324 325 325 326 326 326 327 326 325 326 326 327 325 327 329 327 326 328 329 330 332 330
302 303 302 302 302 302 302 302 302 302 300 305 310 312 313 315 317 317 318 319 321 322 323 322 322 323 323 325 325 326 327 327 327 327 326 326 327 327 328 328 329 331 334 331 330 329 333
302 302 303 301 301 301 302 302 302 302 302 301 309 311 312 313 313 314 318 320 321 320 320 320 322 322 323 324 324 324 325 325 326 327 329 328 327 327 326 326 326 326 333 330 329 333 333
302 302 303 302 302 302 301 302 302 301 301 301 309 310 311 312 313 313 314 316 317 318 321 323 322 322 323 324 322 323 324 324 325 326 327 328 329 329 329 329 329 332 331 332 333 331 330
302 302 303 303 302 302 302 302 302 302 301 301 307 311 311 311 312 312 313 313 313 315 318 321 322 323 324 323 322 323 323 324 326 326 327 327 326 327 328 334 333 330 329 327 328 329 329

GFSGBSN_850_thetae_123.txt.gz
Theta_e
323 322 322 322 323 323 325 326 326 326 325 324 324 324 324 323 322 321 319 319 318 318 317 317 318 318 317 320 330 327 324 322 320 319 325 333 332 329 327 328 330 333 331 330 330 329 329
323 323 323 324 324 324 324 324 324 324 324 323 324 324 324 323 322 322 320 319 318 318 316 316 317 317 316 331 330 326 325 322 320 319 326 331 329 328 329 328 329 333 330 329 329 330 330
322 321 322 322 322 321 321 321 322 322 322 323 323 323 324 323 322 322 320 319 319 319 319 316 316 316 320 331 330 325 324 323 323 326 329 328 327 327 327 330 335 331 328 327 328 330 330
316 315 315 316 316 316 317 318 319 319 321 322 322 323 323 323 322 322 320 319 319 320 321 316 315 317 333 327 330 328 330 330 330 328 328 328 329 327 328 334 334 328 327 327 328 329 329
311 311 311 312 312 312 313 313 314 315 317 319 320 322 323 323 322 321 322 321 319 320 321 319 323 331 334 326 329 328 330 330 329 328 328 329 329 331 333 330 328 327 327 329 329 330 330
308 308 308 308 309 309 310 310 311 311 312 314 316 318 321 322 322 323 323 325 321 321 323 320 330 330 333 327 328 328 328 328 329 330 329 329 327 325 326 326 328 329 329 329 329 328 329
307 307 307 308 308 308 308 309 309 309 310 310 312 313 317 321 323 323 325 328 328 328 325 329 332 333 330 329 328 329 328 328 330 329 328 330 327 327 328 328 329 328 328 329 331 329 329
305 306 306 306 306 307 307 307 308 308 309 310 310 311 313 318 324 324 326 325 324 325 325 326 328 329 329 328 326 327 328 328 329 326 328 328 328 328 330 330 329 328 328 329 331 329 329
303 304 304 304 305 305 306 306 307 308 308 309 310 311 312 315 326 328 327 325 325 326 326 328 329 329 329 328 327 327 327 329 329 327 327 326 328 331 331 329 330 329 329 331 331 330 330
303 303 303 304 304 305 305 306 306 307 308 309 309 310 311 314 326 326 328 326 327 326 326 331 329 327 327 328 326 327 327 329 328 328 328 328 330 330 329 330 330 328 329 330 330 329 327
302 303 303 303 304 304 304 305 306 307 307 309 309 310 311 311 314 325 327 326 327 326 335 330 327 328 328 327 328 327 327 327 327 327 329 327 330 329 330 331 330 330 328 328 328 327 328
303 303 303 304 304 304 305 305 306 306 307 308 309 309 311 311 314 328 327 326 328 329 334 329 328 327 326 327 328 328 327 327 327 327 328 328 330 329 329 330 330 329 329 328 327 326 328
303 304 304 304 304 305 305 305 306 306 307 308 310 310 311 311 323 326 325 327 330 332 332 329 326 326 325 326 326 327 327 326 325 328 327 328 328 328 329 329 328 328 328 328 330 331 332
303 303 304 304 304 305 305 305 306 306 307 309 310 311 312 313 313 319 325 328 334 334 333 331 328 326 326 326 326 327 327 326 326 326 325 327 330 328 329 329 330 330 329 328 335 333 330
303 303 303 303 304 304 305 305 306 307 307 309 310 311 313 317 324 325 325 330 333 333 330 331 330 329 326 327 328 327 326 326 327 326 326 329 332 330 330 330 328 330 328 329 328 330 328
302 302 303 303 303 304 304 305 306 307 307 308 310 314 316 321 324 324 325 326 327 327 327 330 330 330 329 329 328 329 330 330 330 330 328 331 330 331 331 329 329 329 329 327 326 330 332
302 302 303 303 303 303 304 304 305 307 308 308 309 322 324 323 324 323 325 325 326 326 328 329 329 328 328 329 330 329 329 329 329 329 328 329 329 329 330 330 330 330 328 329 326 327 331
302 302 302 303 303 303 304 304 304 306 307 307 311 325 324 325 324 324 323 325 325 326 328 327 326 327 327 329 331 331 332 332 331 330 329 330 328 332 330 330 330 332 329 329 329 331 327
302 303 303 303 303 304 304 304 304 304 305 304 308 319 323 325 324 321 323 325 325 327 327 326 326 326 325 327 330 332 332 330 330 329 329 329 330 330 329 328 328 332 332 332 331 329 329
304 304 304 303 303 304 304 304 304 304 303 303 314 326 324 320 321 321 321 324 327 326 325 325 328 328 328 328 327 331 331 330 328 327 327 329 329 331 329 329 326 329 329 331 328 328 328
304 304 304 304 303 303 304 304 304 304 304 304 320 327 322 327 327 325 329 325 327 326 326 326 326 326 326 329 329 329 329 329 327 326 327 326 330 330 327 326 326 327 327 326 324 326 327
303 303 304 304 303 303 304 304 304 304 304 314 319 320 320 322 322 323 325 330 327 327 327 328 327 326 327 328 329 331 330 330 330 328 328 325 327 330 329 328 328 328 327 326 324 324 323
303 303 304 303 302 303 303 304 304 304 304 314 316 315 317 322 321 320 322 326 324 324 325 325 327 328 329 328 328 328 327 328 330 328 328 328 328 333 331 330 328 327 326 325 324 324 325
303 302 302 302 302 302 303 303 304 304 303 302 312 313 315 319 320 320 321 321 323 326 328 327 328 328 327 326 326 327 328 328 328 327 326 330 330 329 329 328 329 326 325 326 326 326 327
302 303 303 303 303 303 302 302 303 304 303 302 313 313 315 318 319 321 320 322 322 323 326 325 326 326 326 325 327 328 327 328 328 327 325 323 330 327 328 329 327 328 327 333 333 331 332
302 303 303 303 303 303 302 302 302 303 303 302 312 314 314 315 317 315 317 320 322 322 323 323 322 323 324 324 325 329 328 328 328 327 323 322 327 327 328 328 329 327 328 330 331 332 335
302 302 303 303 302 303 302 302 302 303 303 303 305 310 311 313 314 315 317 318 318 320 324 322 322 324 324 323 324 324 324 324 325 325 324 328 328 328 329 329 327 327 328 330 333 334 334
303 303 304 303 302 303 303 302 302 302 303 303 310 311 312 313 313 313 315 316 316 317 319 318 322 324 325 325 326 325 325 325 324 325 328 329 331 329 329 330 329 333 334 337 336 333 331
302 303 303 303 302 303 303 302 302 302 302 303 307 309 311 312 313 313 312 314 315 315 315 316 318 320 325 325 325 326 328 327 325 325 325 324 327 331 328 328 331 328 332 332 330 330 330